GTI914 MTPP-TNCM

Flight info

Callsign GTI914
Flight time 1h 8m
Altitude 36000
Route ETBO1S ETBOD T16 CDO B520 JUICE
Aircraft B748/H-SG/L

Departure

Time 2026-04-24 12:06
Airport Toussaint Louverture International Airport (MTPP)

Arrival

Time 2026-04-24 13:14
Airport Princess Juliana International Airport (TNCM)
Time Latitude Longitude Altitude Speed Heading
2026-04-24 11:29 18.57637 -72.29224 108 ft 0 kts 176°
2026-04-24 11:56 18.57641 -72.29225 108 ft 3 kts 184°
2026-04-24 11:56 18.57662 -72.29219 105 ft 3 kts 230°
2026-04-24 11:56 18.57672 -72.29200 107 ft 1 kts 268°
2026-04-24 11:57 18.57672 -72.29198 107 ft 0 kts 268°
2026-04-24 11:59 18.57672 -72.29202 107 ft 1 kts 268°
2026-04-24 11:59 18.57672 -72.29224 106 ft 6 kts 269°
2026-04-24 12:00 18.57672 -72.29288 108 ft 12 kts 270°
2026-04-24 12:00 18.57672 -72.29384 103 ft 14 kts 269°
2026-04-24 12:00 18.57688 -72.29438 106 ft 5 kts 311°
2026-04-24 12:00 18.57724 -72.29456 107 ft 7 kts 346°
2026-04-24 12:01 18.57786 -72.29461 107 ft 11 kts 359°
2026-04-24 12:01 18.57872 -72.29464 107 ft 14 kts 356°
2026-04-24 12:01 18.57963 -72.29484 105 ft 11 kts 325°
2026-04-24 12:01 18.57990 -72.29556 103 ft 12 kts 269°
2026-04-24 12:02 18.57985 -72.29665 104 ft 18 kts 266°
2026-04-24 12:02 18.57976 -72.29808 102 ft 22 kts 266°
2026-04-24 12:02 18.57967 -72.29980 101 ft 26 kts 267°
2026-04-24 12:02 18.57957 -72.30184 97 ft 30 kts 266°
2026-04-24 12:03 18.57945 -72.30402 97 ft 30 kts 267°
2026-04-24 12:03 18.57938 -72.30579 90 ft 15 kts 265°
2026-04-24 12:03 18.57903 -72.30647 91 ft 7 kts 230°
2026-04-24 12:03 18.57898 -72.30662 92 ft 1 kts 264°
2026-04-24 12:04 18.57902 -72.30670 91 ft 1 kts 294°
2026-04-24 12:04 18.57909 -72.30675 90 ft 1 kts 328°
2026-04-24 12:04 18.57920 -72.30675 90 ft 1 kts
2026-04-24 12:04 18.57927 -72.30669 90 ft 1 kts 39°
2026-04-24 12:05 18.57930 -72.30661 89 ft 1 kts 68°
2026-04-24 12:05 18.57932 -72.30639 91 ft 9 kts 83°
2026-04-24 12:05 18.57953 -72.30285 97 ft 95 kts 86°
2026-04-24 12:05 18.58006 -72.29279 118 ft 177 kts 88°
2026-04-24 12:06 18.58084 -72.27909 758 ft 189 kts 88°
2026-04-24 12:06 18.58175 -72.26501 1300 ft 201 kts 87°
2026-04-24 12:06 18.58256 -72.25009 1917 ft 207 kts 87°
2026-04-24 12:06 18.58405 -72.23442 2406 ft 220 kts 80°
2026-04-24 12:07 18.58733 -72.21824 3031 ft 233 kts 71°
2026-04-24 12:07 18.59430 -72.20233 3626 ft 245 kts 66°
2026-04-24 12:07 18.60064 -72.18544 4447 ft 250 kts 72°
2026-04-24 12:07 18.60579 -72.16781 5287 ft 254 kts 75°
2026-04-24 12:08 18.61095 -72.14983 6106 ft 259 kts 73°
2026-04-24 12:08 18.61646 -72.13178 6863 ft 264 kts 72°
2026-04-24 12:08 18.62227 -72.11301 7640 ft 268 kts 72°
2026-04-24 12:08 18.62747 -72.09430 8412 ft 271 kts 83°
2026-04-24 12:09 18.62604 -72.07460 9198 ft 273 kts 107°
2026-04-24 12:09 18.61994 -72.05552 9982 ft 277 kts 112°
2026-04-24 12:09 18.61311 -72.03640 10704 ft 281 kts 111°
2026-04-24 12:09 18.60665 -72.01675 11424 ft 285 kts 109°
2026-04-24 12:10 18.60041 -71.99675 12150 ft 289 kts 109°
2026-04-24 12:10 18.59258 -71.97722 12849 ft 290 kts 128°
2026-04-24 12:10 18.57984 -71.96032 13379 ft 300 kts 133°
2026-04-24 12:11 18.55068 -71.92577 14164 ft 333 kts 132°
2026-04-24 12:11 18.53531 -71.90653 14506 ft 352 kts 131°
2026-04-24 12:11 18.52121 -71.88504 14851 ft 373 kts 116°
2026-04-24 12:11 18.51359 -71.85836 15330 ft 389 kts 98°
2026-04-24 12:12 18.51185 -71.82953 15959 ft 400 kts 90°
2026-04-24 12:12 18.51246 -71.79997 16647 ft 408 kts 89°
2026-04-24 12:12 18.51268 -71.76981 17357 ft 415 kts 92°
2026-04-24 12:12 18.51091 -71.73916 18094 ft 422 kts 95°
2026-04-24 12:13 18.50871 -71.70811 18748 ft 429 kts 94°
2026-04-24 12:13 18.50741 -71.67644 19408 ft 435 kts 92°
2026-04-24 12:13 18.50646 -71.64433 20063 ft 441 kts 93°
2026-04-24 12:13 18.50507 -71.61188 20720 ft 447 kts 94°
2026-04-24 12:14 18.50337 -71.57894 21369 ft 452 kts 95°
2026-04-24 12:14 18.50182 -71.54562 22011 ft 458 kts 94°
2026-04-24 12:14 18.50044 -71.51189 22652 ft 463 kts 95°
2026-04-24 12:14 18.49899 -71.47823 23262 ft 468 kts 95°
2026-04-24 12:15 18.49739 -71.44380 23826 ft 473 kts 95°
2026-04-24 12:15 18.49577 -71.40900 24328 ft 478 kts 95°
2026-04-24 12:15 18.49420 -71.37383 24839 ft 483 kts 95°
2026-04-24 12:15 18.49262 -71.33825 25343 ft 488 kts 95°
2026-04-24 12:16 18.49097 -71.30238 25824 ft 493 kts 95°
2026-04-24 12:16 18.48929 -71.26617 26302 ft 497 kts 95°
2026-04-24 12:16 18.48761 -71.22963 26763 ft 502 kts 95°
2026-04-24 12:16 18.48591 -71.19275 27228 ft 506 kts 94°
2026-04-24 12:17 18.48419 -71.15558 27687 ft 510 kts 94°
2026-04-24 12:17 18.48242 -71.11805 28143 ft 515 kts 94°
2026-04-24 12:17 18.48064 -71.08022 28605 ft 519 kts 94°
2026-04-24 12:17 18.47884 -71.04197 29076 ft 523 kts 95°
2026-04-24 12:18 18.47704 -71.00400 29521 ft 528 kts 95°
2026-04-24 12:18 18.47516 -70.96467 29974 ft 533 kts 95°
2026-04-24 12:18 18.47330 -70.92556 30349 ft 537 kts 95°
2026-04-24 12:18 18.47140 -70.88608 30720 ft 541 kts 95°
2026-04-24 12:19 18.46951 -70.84687 31073 ft 545 kts 95°
2026-04-24 12:19 18.46754 -70.80636 31431 ft 549 kts 95°
2026-04-24 12:19 18.46561 -70.76658 31776 ft 552 kts 95°
2026-04-24 12:19 18.46363 -70.72599 32128 ft 556 kts 96°
2026-04-24 12:20 18.46162 -70.68517 32487 ft 559 kts 96°
2026-04-24 12:20 18.45962 -70.64433 32997 ft 559 kts 96°
2026-04-24 12:20 18.45760 -70.60345 33485 ft 559 kts 97°
2026-04-24 12:20 18.45557 -70.56262 33966 ft 559 kts 97°
2026-04-24 12:21 18.45352 -70.52169 34377 ft 559 kts 97°
2026-04-24 12:21 18.45147 -70.48077 34768 ft 559 kts 97°
2026-04-24 12:21 18.44942 -70.43998 35175 ft 559 kts 97°
2026-04-24 12:21 18.44734 -70.39901 35563 ft 559 kts 97°
2026-04-24 12:22 18.44526 -70.35813 35923 ft 560 kts 97°
2026-04-24 12:22 18.44108 -70.27619 36005 ft 561 kts 97°
2026-04-24 12:23 18.43687 -70.19459 35997 ft 556 kts 97°
2026-04-24 12:23 18.43266 -70.11375 36014 ft 557 kts 97°
2026-04-24 12:24 18.42963 -70.03211 36025 ft 559 kts 92°
2026-04-24 12:24 18.43085 -69.94993 36018 ft 560 kts 92°
2026-04-24 12:25 18.43181 -69.86789 36015 ft 560 kts 93°
2026-04-24 12:25 18.43280 -69.78636 36018 ft 558 kts 92°
2026-04-24 12:26 18.43375 -69.70433 36021 ft 559 kts 92°
2026-04-24 12:26 18.43601 -69.62241 36031 ft 560 kts 91°
2026-04-24 12:27 18.43813 -69.54056 36025 ft 559 kts 91°
2026-04-24 12:27 18.44113 -69.45907 36015 ft 560 kts 91°
2026-04-24 12:28 18.44356 -69.37709 36019 ft 560 kts 91°
2026-04-24 12:28 18.44626 -69.29506 36012 ft 560 kts 91°
2026-04-24 12:29 18.44877 -69.21302 36018 ft 560 kts 91°
2026-04-24 12:29 18.45131 -69.13092 36013 ft 560 kts 91°
2026-04-24 12:30 18.45380 -69.04890 36014 ft 560 kts 91°
2026-04-24 12:30 18.45625 -68.96696 36015 ft 560 kts 91°
2026-04-24 12:31 18.45868 -68.88486 36017 ft 560 kts 91°
2026-04-24 12:31 18.46104 -68.80344 36020 ft 560 kts 91°
2026-04-24 12:32 18.46345 -68.72151 36015 ft 560 kts 91°
2026-04-24 12:32 18.46587 -68.63943 36011 ft 560 kts 91°
2026-04-24 12:33 18.46821 -68.55747 36006 ft 559 kts 91°
2026-04-24 12:33 18.47054 -68.47564 36012 ft 559 kts 91°
2026-04-24 12:34 18.47283 -68.39371 36015 ft 559 kts 91°
2026-04-24 12:34 18.47508 -68.31187 36019 ft 559 kts 91°
2026-04-24 12:35 18.47728 -68.23049 36018 ft 559 kts 91°
2026-04-24 12:35 18.47947 -68.14867 36019 ft 560 kts 91°
2026-04-24 12:36 18.48162 -68.06630 36026 ft 562 kts 91°
2026-04-24 12:36 18.48374 -67.98388 36021 ft 563 kts 91°
2026-04-24 12:37 18.48517 -67.90139 36022 ft 563 kts 92°
2026-04-24 12:37 18.48675 -67.81904 36022 ft 563 kts 92°
2026-04-24 12:38 18.48801 -67.75055 36020 ft 562 kts 92°
2026-04-24 12:38 18.48941 -67.66828 36018 ft 561 kts 92°
2026-04-24 12:39 18.49222 -67.50372 36015 ft 561 kts 92°
2026-04-24 12:40 18.49360 -67.42161 36023 ft 561 kts 92°
2026-04-24 12:40 18.49490 -67.33936 36031 ft 561 kts 92°
2026-04-24 12:41 18.49619 -67.25711 36039 ft 562 kts 92°
2026-04-24 12:41 18.49742 -67.17531 36036 ft 560 kts 92°
2026-04-24 12:42 18.49778 -67.09346 36044 ft 557 kts 95°
2026-04-24 12:42 18.49438 -67.01171 36044 ft 557 kts 96°
2026-04-24 12:43 18.49094 -66.93032 36039 ft 558 kts 96°
2026-04-24 12:43 18.48747 -66.84868 36032 ft 556 kts 96°
2026-04-24 12:44 18.48396 -66.76741 36026 ft 555 kts 96°
2026-04-24 12:44 18.48043 -66.68609 36029 ft 555 kts 96°
2026-04-24 12:45 18.47688 -66.60516 36032 ft 555 kts 96°
2026-04-24 12:45 18.47329 -66.52403 36027 ft 553 kts 96°
2026-04-24 12:46 18.46966 -66.44306 36029 ft 553 kts 96°
2026-04-24 12:46 18.46929 -66.36194 36040 ft 556 kts 91°
2026-04-24 12:47 18.47157 -66.28044 36042 ft 556 kts 91°
2026-04-24 12:47 18.47325 -66.19904 36042 ft 554 kts 91°
2026-04-24 12:48 18.47524 -66.11787 36041 ft 554 kts 91°
2026-04-24 12:48 18.47699 -66.03670 36042 ft 554 kts 91°
2026-04-24 12:49 18.47882 -65.95557 36039 ft 554 kts 91°
2026-04-24 12:49 18.48054 -65.87495 36038 ft 553 kts 91°
2026-04-24 12:50 18.48226 -65.79405 36036 ft 552 kts 91°
2026-04-24 12:50 18.48394 -65.71305 36036 ft 555 kts 91°
2026-04-24 12:51 18.48561 -65.63131 36041 ft 557 kts 91°
2026-04-24 12:51 18.48724 -65.54980 36034 ft 555 kts 91°
2026-04-24 12:52 18.48880 -65.46893 36029 ft 556 kts 91°
2026-04-24 12:52 18.49037 -65.38746 36031 ft 556 kts 91°
2026-04-24 12:53 18.49188 -65.30597 36028 ft 557 kts 92°
2026-04-24 12:53 18.48965 -65.26545 36049 ft 549 kts 104°
2026-04-24 12:53 18.48057 -65.22671 36048 ft 542 kts 115°
2026-04-24 12:53 18.46498 -65.19094 36050 ft 532 kts 127°
2026-04-24 12:54 18.44438 -65.15902 36040 ft 524 kts 134°
2026-04-24 12:54 18.39884 -65.09951 36037 ft 521 kts 134°
2026-04-24 12:55 18.35870 -65.03611 35816 ft 530 kts 122°
2026-04-24 12:55 18.34450 -64.99974 35178 ft 544 kts 109°
2026-04-24 12:55 18.33656 -64.96064 34553 ft 550 kts 100°
2026-04-24 12:55 18.33274 -64.92048 33888 ft 553 kts 96°
2026-04-24 12:56 18.33040 -64.88008 33209 ft 552 kts 96°
2026-04-24 12:56 18.32748 -64.83986 32554 ft 550 kts 99°
2026-04-24 12:56 18.32158 -64.80026 31873 ft 547 kts 103°
2026-04-24 12:56 18.31370 -64.76114 31182 ft 545 kts 105°
2026-04-24 12:57 18.30562 -64.72213 30494 ft 545 kts 103°
2026-04-24 12:57 18.29953 -64.68272 29718 ft 546 kts 99°
2026-04-24 12:57 18.29429 -64.64359 28994 ft 535 kts 101°
2026-04-24 12:57 18.28800 -64.60532 28299 ft 524 kts 103°
2026-04-24 12:58 18.28112 -64.56788 27617 ft 518 kts 103°
2026-04-24 12:58 18.27483 -64.53053 26956 ft 520 kts 101°
2026-04-24 12:58 18.26910 -64.49327 26277 ft 524 kts 101°
2026-04-24 12:58 18.26304 -64.45551 25573 ft 523 kts 102°
2026-04-24 12:59 18.25662 -64.41791 24892 ft 521 kts 102°
2026-04-24 12:59 18.25029 -64.38048 24192 ft 519 kts 102°
2026-04-24 12:59 18.24418 -64.34299 23477 ft 517 kts 101°
2026-04-24 12:59 18.23812 -64.30580 22755 ft 513 kts 101°
2026-04-24 13:00 18.23198 -64.26904 22071 ft 508 kts 101°
2026-04-24 13:00 18.22586 -64.23263 21393 ft 501 kts 101°
2026-04-24 13:00 18.21995 -64.19701 20734 ft 489 kts 101°
2026-04-24 13:00 18.21419 -64.16214 20075 ft 477 kts 101°
2026-04-24 13:01 18.20852 -64.12820 19440 ft 466 kts 101°
2026-04-24 13:01 18.20295 -64.09498 18828 ft 456 kts 101°
2026-04-24 13:01 18.19750 -64.06241 18202 ft 447 kts 100°
2026-04-24 13:01 18.19224 -64.03083 17605 ft 437 kts 100°
2026-04-24 13:02 18.18703 -63.99968 16972 ft 430 kts 100°
2026-04-24 13:02 18.18187 -63.96891 16388 ft 426 kts 100°
2026-04-24 13:02 18.17672 -63.93825 15812 ft 423 kts 100°
2026-04-24 13:02 18.17165 -63.90806 15234 ft 415 kts 100°
2026-04-24 13:03 18.16668 -63.87846 14664 ft 407 kts 100°
2026-04-24 13:03 18.16178 -63.84934 14103 ft 403 kts 100°
2026-04-24 13:03 18.15684 -63.82003 13512 ft 409 kts 100°
2026-04-24 13:03 18.15202 -63.79143 12907 ft 385 kts 100°
2026-04-24 13:04 18.14749 -63.76454 12367 ft 363 kts 100°
2026-04-24 13:04 18.14320 -63.73912 11870 ft 344 kts 100°
2026-04-24 13:04 18.13915 -63.71519 11398 ft 328 kts 100°
2026-04-24 13:04 18.13523 -63.69201 10936 ft 315 kts 100°
2026-04-24 13:05 18.13141 -63.66976 10490 ft 303 kts 103°
2026-04-24 13:05 18.12522 -63.64899 10097 ft 296 kts 109°
2026-04-24 13:05 18.11882 -63.62821 9680 ft 302 kts 108°
2026-04-24 13:05 18.11235 -63.60711 9283 ft 305 kts 109°
2026-04-24 13:06 18.10565 -63.58575 8877 ft 309 kts 109°
2026-04-24 13:06 18.09889 -63.56434 8433 ft 305 kts 109°
2026-04-24 13:06 18.09241 -63.54364 8040 ft 291 kts 109°
2026-04-24 13:06 18.08614 -63.52361 7686 ft 289 kts 109°
2026-04-24 13:07 18.07981 -63.50343 7275 ft 291 kts 110°
2026-04-24 13:07 18.07360 -63.48365 6891 ft 279 kts 110°
2026-04-24 13:07 18.06757 -63.46444 6539 ft 275 kts 110°
2026-04-24 13:07 18.06170 -63.44577 6196 ft 269 kts 109°
2026-04-24 13:08 18.05595 -63.42745 5832 ft 259 kts 109°
2026-04-24 13:08 18.05038 -63.40975 5487 ft 251 kts 109°
2026-04-24 13:08 18.04499 -63.39258 5152 ft 243 kts 109°
2026-04-24 13:09 18.03462 -63.35963 4496 ft 232 kts 109°
2026-04-24 13:09 18.02958 -63.34366 4199 ft 228 kts 108°
2026-04-24 13:09 18.02471 -63.32814 3921 ft 220 kts 108°
2026-04-24 13:09 18.01983 -63.31314 3632 ft 214 kts 107°
2026-04-24 13:10 18.01636 -63.29817 3326 ft 210 kts 99°
2026-04-24 13:10 18.01568 -63.28310 3065 ft 203 kts 86°
2026-04-24 13:10 18.01764 -63.26863 2798 ft 197 kts 80°
2026-04-24 13:10 18.02000 -63.25467 2525 ft 191 kts 81°
2026-04-24 13:11 18.02202 -63.24129 2287 ft 183 kts 83°
2026-04-24 13:11 18.02384 -63.22844 2038 ft 171 kts 82°
2026-04-24 13:11 18.02553 -63.21653 1824 ft 158 kts 82°
2026-04-24 13:11 18.02714 -63.20521 1654 ft 158 kts 82°
2026-04-24 13:12 18.02875 -63.19409 1430 ft 152 kts 82°
2026-04-24 13:12 18.03031 -63.18315 1247 ft 152 kts 82°
2026-04-24 13:12 18.03188 -63.17229 1030 ft 148 kts 82°
2026-04-24 13:12 18.03342 -63.16116 822 ft 153 kts 80°
2026-04-24 13:13 18.03509 -63.15037 644 ft 155 kts 80°
2026-04-24 13:13 18.03676 -63.13882 469 ft 161 kts 82°
2026-04-24 13:13 18.03825 -63.12746 243 ft 153 kts 79°
2026-04-24 13:13 18.03983 -63.11662 34 ft 143 kts 80°
2026-04-24 13:14 18.04100 -63.10825 30 ft 84 kts 82°
2026-04-24 13:14 18.04167 -63.10376 29 ft 50 kts 81°
2026-04-24 13:14 18.04214 -63.10045 29 ft 33 kts 82°
2026-04-24 13:14 18.04251 -63.09935 30 ft 10 kts 50°
2026-04-24 13:15 18.04286 -63.09885 30 ft 4 kts 76°
2026-04-24 13:15 18.04276 -63.09869 30 ft 3 kts 141°
2026-04-24 13:15 18.04254 -63.09877 30 ft 5 kts 226°
2026-04-24 13:15 18.04224 -63.09960 29 ft 18 kts 260°
2026-04-24 13:16 18.04209 -63.10092 29 ft 18 kts 262°
2026-04-24 13:16 18.04188 -63.10218 29 ft 17 kts 261°
2026-04-24 13:16 18.04170 -63.10348 29 ft 20 kts 262°
2026-04-24 13:16 18.04150 -63.10504 31 ft 23 kts 262°
2026-04-24 13:17 18.04125 -63.10668 31 ft 23 kts 261°
2026-04-24 13:17 18.04101 -63.10829 30 ft 22 kts 261°
2026-04-24 13:17 18.04078 -63.10986 31 ft 21 kts 261°
2026-04-24 13:17 18.04062 -63.11107 32 ft 10 kts 263°
2026-04-24 13:18 18.04065 -63.11140 32 ft 1 kts 296°
2026-04-24 13:18 18.04064 -63.11152 31 ft 4 kts 257°
2026-04-24 13:18 18.04043 -63.11246 30 ft 11 kts 271°
2026-04-24 13:18 18.04070 -63.11280 30 ft 6 kts 327°
2026-04-24 13:19 18.04105 -63.11293 31 ft 5 kts 348°
2026-04-24 13:19 18.04125 -63.11296 31 ft 0 kts 353°
2026-04-24 13:20 18.04129 -63.11297 31 ft 3 kts 353°
2026-04-24 13:20 18.04174 -63.11303 31 ft 10 kts 351°
2026-04-24 13:20 18.04238 -63.11300 31 ft 9 kts 22°
2026-04-24 13:20 18.04277 -63.11256 31 ft 10 kts 59°
2026-04-24 13:21 18.04289 -63.11236 31 ft 5 kts 52°
2026-04-24 13:21 18.04319 -63.11220 31 ft 4 kts
2026-04-24 13:21 18.04340 -63.11223 31 ft 0 kts 353°
2026-04-24 13:21 18.04343 -63.11223 31 ft 0 kts 352°